THY7VP LTAT-LTFM

Flight info

Callsign THY7VP
Flight time 1h 23m
Altitude 38000
Route UREBO UW73 GEM UL614 BAG UL605 YAVRU UA4 ERSEN
Aircraft A20N/M-SDE2E3FGHIRWXY/LB1

Departure

Time 2026-05-05 20:23
Airport Malatya Erhaç Airport (LTAT)

Arrival

Time 2026-05-05 21:47
Airport İstanbul Airport (LTFM)
Time Latitude Longitude Altitude Speed Heading
2026-05-05 20:16 38.43119 38.08272 2823 ft 0 kts 299°
2026-05-05 20:16 38.43118 38.08274 2823 ft 1 kts 301°
2026-05-05 20:16 38.43114 38.08282 2823 ft 1 kts 322°
2026-05-05 20:17 38.43108 38.08288 2824 ft 1 kts 344°
2026-05-05 20:17 38.43100 38.08290 2823 ft 1 kts
2026-05-05 20:17 38.43093 38.08288 2823 ft 1 kts 27°
2026-05-05 20:17 38.43086 38.08283 2823 ft 1 kts 49°
2026-05-05 20:18 38.43081 38.08276 2822 ft 1 kts 70°
2026-05-05 20:18 38.43079 38.08266 2822 ft 1 kts 92°
2026-05-05 20:18 38.43079 38.08265 2822 ft 0 kts 94°
2026-05-05 20:20 38.43079 38.08268 2822 ft 2 kts 94°
2026-05-05 20:20 38.43070 38.08315 2826 ft 8 kts 112°
2026-05-05 20:20 38.43027 38.08372 2825 ft 10 kts 168°
2026-05-05 20:21 38.42951 38.08379 2830 ft 12 kts 179°
2026-05-05 20:21 38.42885 38.08322 2830 ft 13 kts 219°
2026-05-05 20:21 38.42805 38.08241 2829 ft 17 kts 218°
2026-05-05 20:21 38.42698 38.08163 2833 ft 19 kts 208°
2026-05-05 20:22 38.42579 38.08072 2836 ft 21 kts 211°
2026-05-05 20:22 38.42442 38.07985 2840 ft 21 kts 199°
2026-05-05 20:22 38.42424 38.07929 2840 ft 2 kts 355°
2026-05-05 20:22 38.42438 38.07958 2839 ft 7 kts 62°
2026-05-05 20:23 38.42550 38.08048 2837 ft 53 kts 31°
2026-05-05 20:23 38.43128 38.08497 2823 ft 136 kts 30°
2026-05-05 20:23 38.44100 38.09262 3041 ft 179 kts 32°
2026-05-05 20:23 38.45192 38.10102 3804 ft 186 kts 30°
2026-05-05 20:24 38.46327 38.10954 4663 ft 191 kts 29°
2026-05-05 20:24 38.47497 38.11803 5487 ft 194 kts 28°
2026-05-05 20:24 38.48683 38.12670 6190 ft 207 kts 30°
2026-05-05 20:24 38.50006 38.13564 6673 ft 227 kts 15°
2026-05-05 20:25 38.51645 38.13616 7150 ft 249 kts 345°
2026-05-05 20:25 38.53221 38.12534 7734 ft 269 kts 317°
2026-05-05 20:25 38.54243 38.10515 8652 ft 277 kts 291°
2026-05-05 20:25 38.54711 38.08092 9471 ft 285 kts 282°
2026-05-05 20:26 38.55083 38.05587 10101 ft 290 kts 283°
2026-05-05 20:26 38.55551 38.03005 10674 ft 309 kts 286°
2026-05-05 20:26 38.56160 38.00299 11030 ft 331 kts 289°
2026-05-05 20:26 38.56887 37.97455 11785 ft 339 kts 290°
2026-05-05 20:27 38.57655 37.94586 12660 ft 343 kts 290°
2026-05-05 20:27 38.58445 37.91675 13559 ft 348 kts 290°
2026-05-05 20:27 38.59235 37.88765 14343 ft 352 kts 290°
2026-05-05 20:27 38.60040 37.85789 15135 ft 356 kts 290°
2026-05-05 20:28 38.60854 37.82769 15916 ft 360 kts 290°
2026-05-05 20:28 38.61674 37.79718 16701 ft 364 kts 290°
2026-05-05 20:28 38.62501 37.76632 17426 ft 370 kts 290°
2026-05-05 20:28 38.63331 37.73533 18151 ft 374 kts 289°
2026-05-05 20:29 38.64183 37.70352 18804 ft 379 kts 289°
2026-05-05 20:29 38.65040 37.67146 19450 ft 383 kts 289°
2026-05-05 20:29 38.65906 37.63900 20102 ft 387 kts 288°
2026-05-05 20:29 38.66779 37.60626 20755 ft 390 kts 288°
2026-05-05 20:30 38.67650 37.57358 21376 ft 395 kts 288°
2026-05-05 20:30 38.68541 37.54007 22038 ft 398 kts 287°
2026-05-05 20:30 38.69435 37.50634 22697 ft 401 kts 287°
2026-05-05 20:30 38.70339 37.47216 23333 ft 405 kts 287°
2026-05-05 20:31 38.71247 37.43781 23902 ft 408 kts 287°
2026-05-05 20:31 38.72145 37.40380 24489 ft 410 kts 287°
2026-05-05 20:31 38.73059 37.36910 25046 ft 412 kts 287°
2026-05-05 20:31 38.73976 37.33427 25586 ft 414 kts 287°
2026-05-05 20:32 38.74898 37.29917 26127 ft 416 kts 287°
2026-05-05 20:32 38.75827 37.26376 26641 ft 419 kts 287°
2026-05-05 20:32 38.76754 37.22835 27162 ft 420 kts 287°
2026-05-05 20:32 38.77688 37.19264 27669 ft 423 kts 288°
2026-05-05 20:33 38.78623 37.15685 28142 ft 425 kts 288°
2026-05-05 20:33 38.79694 37.12140 28582 ft 428 kts 292°
2026-05-05 20:33 38.80852 37.08671 28998 ft 430 kts 292°
2026-05-05 20:33 38.82038 37.05117 29430 ft 432 kts 293°
2026-05-05 20:34 38.83221 37.01559 29825 ft 435 kts 293°
2026-05-05 20:34 38.84411 36.97970 30180 ft 438 kts 293°
2026-05-05 20:34 38.85608 36.94356 30509 ft 441 kts 293°
2026-05-05 20:34 38.86811 36.90716 30858 ft 443 kts 293°
2026-05-05 20:35 38.88001 36.87111 31209 ft 445 kts 292°
2026-05-05 20:35 38.89206 36.83454 31635 ft 444 kts 292°
2026-05-05 20:35 38.90412 36.79792 32075 ft 444 kts 292°
2026-05-05 20:35 38.91613 36.76139 32526 ft 443 kts 292°
2026-05-05 20:36 38.92810 36.72493 32955 ft 442 kts 292°
2026-05-05 20:36 38.94005 36.68851 33359 ft 442 kts 292°
2026-05-05 20:36 38.95197 36.65211 33758 ft 442 kts 292°
2026-05-05 20:36 38.96389 36.61567 34124 ft 441 kts 292°
2026-05-05 20:37 38.97578 36.57928 34445 ft 441 kts 292°
2026-05-05 20:37 38.98367 36.55512 34651 ft 441 kts 292°
2026-05-05 20:37 38.99934 36.50705 35045 ft 441 kts 292°
2026-05-05 20:38 39.00337 36.49465 35140 ft 441 kts 292°
2026-05-05 20:38 39.01122 36.47054 35326 ft 441 kts 292°
2026-05-05 20:39 39.02304 36.43416 35603 ft 441 kts 292°
2026-05-05 20:39 39.03488 36.39769 35877 ft 441 kts 292°
2026-05-05 20:39 39.04668 36.36129 36154 ft 441 kts 292°
2026-05-05 20:39 39.05851 36.32476 36420 ft 441 kts 292°
2026-05-05 20:40 39.06635 36.30050 36588 ft 441 kts 292°
2026-05-05 20:40 39.07813 36.26406 36859 ft 441 kts 292°
2026-05-05 20:40 39.09370 36.21580 37196 ft 441 kts 292°
2026-05-05 20:40 39.10150 36.19157 37365 ft 440 kts 291°
2026-05-05 20:41 39.11324 36.15511 37608 ft 440 kts 291°
2026-05-05 20:41 39.12497 36.11859 37841 ft 440 kts 291°
2026-05-05 20:41 39.13669 36.08208 38000 ft 441 kts 291°
2026-05-05 20:42 39.15997 36.00918 38018 ft 439 kts 291°
2026-05-05 20:42 39.18176 35.93571 38027 ft 439 kts 290°
2026-05-05 20:43 39.20320 35.86246 38028 ft 438 kts 290°
2026-05-05 20:43 39.22489 35.78883 38026 ft 439 kts 290°
2026-05-05 20:44 39.24645 35.71566 38028 ft 439 kts 290°
2026-05-05 20:44 39.26814 35.64186 38023 ft 439 kts 290°
2026-05-05 20:45 39.30062 35.53097 38029 ft 439 kts 290°
2026-05-05 20:45 39.32207 35.45745 38026 ft 439 kts 290°
2026-05-05 20:46 39.34362 35.38343 38030 ft 439 kts 290°
2026-05-05 20:46 39.36504 35.30961 38024 ft 437 kts 290°
2026-05-05 20:47 39.38631 35.23614 38020 ft 437 kts 290°
2026-05-05 20:47 39.40758 35.16256 38022 ft 436 kts 290°
2026-05-05 20:48 39.42931 35.08906 38023 ft 436 kts 290°
2026-05-05 20:48 39.45090 35.01608 38026 ft 436 kts 290°
2026-05-05 20:49 39.47249 34.94268 38027 ft 436 kts 290°
2026-05-05 20:49 39.49401 34.86926 38035 ft 436 kts 290°
2026-05-05 20:50 39.51534 34.79628 38032 ft 435 kts 290°
2026-05-05 20:50 39.53678 34.72271 38029 ft 435 kts 290°
2026-05-05 20:51 39.55813 34.64925 38031 ft 435 kts 290°
2026-05-05 20:51 39.57944 34.57575 38030 ft 435 kts 290°
2026-05-05 20:52 39.60069 34.50220 38031 ft 435 kts 290°
2026-05-05 20:52 39.62182 34.42890 38026 ft 435 kts 290°
2026-05-05 20:53 39.64298 34.35529 38032 ft 435 kts 290°
2026-05-05 20:53 39.66410 34.28159 38029 ft 435 kts 290°
2026-05-05 20:54 39.68500 34.20840 38029 ft 435 kts 290°
2026-05-05 20:54 39.70606 34.13452 38029 ft 435 kts 290°
2026-05-05 20:55 39.72703 34.06071 38032 ft 435 kts 290°
2026-05-05 20:55 39.73746 34.02392 38032 ft 434 kts 290°
2026-05-05 20:57 39.75464 33.96323 38032 ft 434 kts 290°
2026-05-05 20:58 39.77518 33.88942 38027 ft 434 kts 288°
2026-05-05 20:58 39.79099 33.81373 38027 ft 433 kts 285°
2026-05-05 20:59 39.80642 33.73803 38032 ft 432 kts 285°
2026-05-05 20:59 39.82169 33.66285 38027 ft 432 kts 285°
2026-05-05 21:00 39.83896 33.58795 38030 ft 431 kts 292°
2026-05-05 21:00 39.86098 33.51533 38022 ft 430 kts 292°
2026-05-05 21:01 39.88274 33.44268 38021 ft 430 kts 292°
2026-05-05 21:01 39.90430 33.37053 38018 ft 429 kts 292°
2026-05-05 21:02 39.92600 33.29778 38013 ft 429 kts 292°
2026-05-05 21:02 39.94758 33.22525 38009 ft 429 kts 292°
2026-05-05 21:03 39.96904 33.15293 38011 ft 429 kts 291°
2026-05-05 21:03 39.99059 33.08013 38013 ft 429 kts 292°
2026-05-05 21:04 40.01208 33.00730 38010 ft 430 kts 292°
2026-05-05 21:04 40.03340 32.93487 38013 ft 430 kts 292°
2026-05-05 21:05 40.05483 32.86186 38018 ft 430 kts 292°
2026-05-05 21:05 40.08094 32.79158 38021 ft 430 kts 301°
2026-05-05 21:06 40.11421 32.72720 38025 ft 430 kts 305°
2026-05-05 21:06 40.14833 32.66284 38035 ft 431 kts 305°
2026-05-05 21:07 40.18247 32.59831 38041 ft 431 kts 305°
2026-05-05 21:07 40.21650 32.53393 38047 ft 431 kts 305°
2026-05-05 21:08 40.25074 32.46907 38051 ft 432 kts 305°
2026-05-05 21:08 40.28469 32.40460 38061 ft 432 kts 305°
2026-05-05 21:09 40.31880 32.33971 38049 ft 430 kts 305°
2026-05-05 21:09 40.35273 32.27502 38053 ft 430 kts 305°
2026-05-05 21:10 40.38640 32.21071 38056 ft 430 kts 305°
2026-05-05 21:10 40.42021 32.14597 38057 ft 430 kts 305°
2026-05-05 21:11 40.45392 32.08113 38063 ft 429 kts 305°
2026-05-05 21:11 40.48758 32.01617 38063 ft 429 kts 305°
2026-05-05 21:12 40.52092 31.95172 38062 ft 429 kts 305°
2026-05-05 21:12 40.55439 31.88688 38059 ft 428 kts 304°
2026-05-05 21:13 40.58324 31.81856 38062 ft 429 kts 296°
2026-05-05 21:13 40.60397 31.74457 38058 ft 431 kts 290°
2026-05-05 21:14 40.62262 31.66951 38058 ft 431 kts 290°
2026-05-05 21:14 40.64128 31.59440 38061 ft 431 kts 290°
2026-05-05 21:15 40.65973 31.51950 38070 ft 432 kts 290°
2026-05-05 21:15 40.67822 31.44411 38075 ft 433 kts 290°
2026-05-05 21:16 40.69671 31.36849 37903 ft 433 kts 290°
2026-05-05 21:16 40.70591 31.33074 37634 ft 432 kts 290°
2026-05-05 21:16 40.71506 31.29312 37365 ft 431 kts 290°
2026-05-05 21:17 40.72422 31.25545 37107 ft 432 kts 290°
2026-05-05 21:17 40.73326 31.21818 36843 ft 432 kts 290°
2026-05-05 21:17 40.74246 31.18026 36312 ft 435 kts 290°
2026-05-05 21:17 40.75170 31.14206 35554 ft 439 kts 290°
2026-05-05 21:18 40.76097 31.10364 34876 ft 439 kts 290°
2026-05-05 21:18 40.77022 31.06521 34108 ft 440 kts 291°
2026-05-05 21:18 40.77947 31.02675 33374 ft 438 kts 291°
2026-05-05 21:18 40.78868 30.98838 32565 ft 438 kts 291°
2026-05-05 21:19 40.79778 30.95048 31756 ft 439 kts 291°
2026-05-05 21:19 40.80701 30.91196 30861 ft 442 kts 290°
2026-05-05 21:19 40.81628 30.87324 29928 ft 444 kts 290°
2026-05-05 21:19 40.82558 30.83428 29109 ft 442 kts 290°
2026-05-05 21:20 40.83473 30.79583 28597 ft 433 kts 290°
2026-05-05 21:20 40.84362 30.75834 28194 ft 422 kts 290°
2026-05-05 21:20 40.85236 30.72146 27600 ft 417 kts 290°
2026-05-05 21:20 40.86094 30.68503 27033 ft 413 kts 289°
2026-05-05 21:21 40.86715 30.64835 26737 ft 404 kts 282°
2026-05-05 21:21 40.87072 30.61199 26483 ft 405 kts 280°
2026-05-05 21:21 40.87436 30.57490 26081 ft 407 kts 281°
2026-05-05 21:21 40.87806 30.53786 25661 ft 404 kts 281°
2026-05-05 21:22 40.88176 30.50115 25252 ft 399 kts 282°
2026-05-05 21:22 40.88882 30.46615 24859 ft 391 kts 295°
2026-05-05 21:22 40.90125 30.43445 24461 ft 386 kts 306°
2026-05-05 21:22 40.91810 30.40698 24070 ft 383 kts 314°
2026-05-05 21:23 40.93586 30.38086 23678 ft 381 kts 314°
2026-05-05 21:23 40.95334 30.35498 23260 ft 379 kts 314°
2026-05-05 21:23 40.97084 30.32895 22876 ft 377 kts 314°
2026-05-05 21:23 40.98829 30.30297 22507 ft 375 kts 314°
2026-05-05 21:24 41.00538 30.27749 22387 ft 363 kts 314°
2026-05-05 21:24 41.02163 30.25322 22249 ft 350 kts 314°
2026-05-05 21:24 41.03752 30.22947 22022 ft 340 kts 314°
2026-05-05 21:24 41.05314 30.20615 21551 ft 337 kts 314°
2026-05-05 21:25 41.06601 30.18022 21036 ft 340 kts 294°
2026-05-05 21:25 41.07083 30.14940 20543 ft 345 kts 273°
2026-05-05 21:25 41.06666 30.11800 20067 ft 349 kts 251°
2026-05-05 21:25 41.05392 30.09060 19652 ft 351 kts 229°
2026-05-05 21:26 41.03632 30.06911 19314 ft 347 kts 221°
2026-05-05 21:26 41.01764 30.04896 18966 ft 344 kts 220°
2026-05-05 21:26 41.00533 30.03576 18734 ft 343 kts 221°
2026-05-05 21:26 40.98686 30.01552 18385 ft 342 kts 222°
2026-05-05 21:27 40.96300 29.98855 17903 ft 337 kts 223°
2026-05-05 21:27 40.95099 29.97475 17671 ft 338 kts 223°
2026-05-05 21:27 40.93355 29.95457 17331 ft 335 kts 223°
2026-05-05 21:27 40.91604 29.93426 16999 ft 334 kts 223°
2026-05-05 21:28 40.89856 29.91400 16652 ft 332 kts 223°
2026-05-05 21:28 40.88169 29.89331 16312 ft 328 kts 232°
2026-05-05 21:28 40.87073 29.86746 15979 ft 322 kts 256°
2026-05-05 21:28 40.86790 29.83860 15616 ft 315 kts 271°
2026-05-05 21:29 40.86766 29.80967 15256 ft 314 kts 272°
2026-05-05 21:29 40.86753 29.78089 14897 ft 312 kts 272°
2026-05-05 21:29 40.86735 29.75258 14546 ft 311 kts 272°
2026-05-05 21:29 40.86708 29.72408 14191 ft 309 kts 272°
2026-05-05 21:30 40.86676 29.69573 13827 ft 308 kts 272°
2026-05-05 21:30 40.86640 29.66755 13456 ft 306 kts 272°
2026-05-05 21:30 40.86791 29.63869 13146 ft 334 kts 278°
2026-05-05 21:30 40.86996 29.60661 12635 ft 362 kts 277°
2026-05-05 21:31 40.87201 29.57348 12291 ft 367 kts 277°
2026-05-05 21:31 40.87417 29.53999 11893 ft 365 kts 277°
2026-05-05 21:31 40.87645 29.50670 11350 ft 361 kts 278°
2026-05-05 21:31 40.87879 29.47371 10742 ft 358 kts 278°
2026-05-05 21:32 40.88111 29.44138 10416 ft 344 kts 278°
2026-05-05 21:32 40.88328 29.41085 10201 ft 322 kts 278°
2026-05-05 21:32 40.88530 29.38224 10013 ft 302 kts 278°
2026-05-05 21:32 40.88720 29.35545 9602 ft 291 kts 278°
2026-05-05 21:33 40.88908 29.32951 9174 ft 282 kts 279°
2026-05-05 21:33 40.89091 29.30404 8817 ft 276 kts 279°
2026-05-05 21:33 40.89272 29.27894 8461 ft 273 kts 278°
2026-05-05 21:33 40.89449 29.25410 8116 ft 269 kts 278°
2026-05-05 21:34 40.89623 29.22960 7772 ft 266 kts 278°
2026-05-05 21:34 40.89795 29.20533 7432 ft 263 kts 278°
2026-05-05 21:34 40.89963 29.18131 7089 ft 261 kts 278°
2026-05-05 21:34 40.90127 29.15779 6758 ft 259 kts 278°
2026-05-05 21:35 40.90292 29.13414 6415 ft 257 kts 278°
2026-05-05 21:35 40.90456 29.11063 6074 ft 255 kts 278°
2026-05-05 21:35 40.90617 29.08737 5744 ft 252 kts 278°
2026-05-05 21:35 40.90775 29.06442 5513 ft 246 kts 278°
2026-05-05 21:36 40.90924 29.04250 5312 ft 240 kts 278°
2026-05-05 21:36 40.91071 29.02078 5137 ft 233 kts 278°
2026-05-05 21:36 40.91222 28.99939 5013 ft 235 kts 279°
2026-05-05 21:36 40.91404 28.97798 4886 ft 233 kts 280°
2026-05-05 21:37 40.91600 28.95670 4759 ft 233 kts 280°
2026-05-05 21:37 40.91796 28.93540 4626 ft 233 kts 280°
2026-05-05 21:37 40.91985 28.91450 4498 ft 232 kts 280°
2026-05-05 21:37 40.92170 28.89358 4359 ft 225 kts 280°
2026-05-05 21:38 40.92347 28.87327 4228 ft 219 kts 280°
2026-05-05 21:38 40.92523 28.85307 4104 ft 221 kts 280°
2026-05-05 21:38 40.92699 28.83289 4003 ft 220 kts 279°
2026-05-05 21:38 40.92875 28.81279 3998 ft 220 kts 281°
2026-05-05 21:39 40.93429 28.79476 4002 ft 214 kts 313°
2026-05-05 21:39 40.94599 28.78312 4000 ft 211 kts 332°
2026-05-05 21:39 40.95870 28.77333 3997 ft 211 kts 332°
2026-05-05 21:39 40.97202 28.76552 3999 ft 209 kts 346°
2026-05-05 21:40 40.98635 28.76235 3999 ft 209 kts 356°
2026-05-05 21:40 41.00085 28.76158 3999 ft 208 kts 360°
2026-05-05 21:40 41.01539 28.76139 3998 ft 208 kts 359°
2026-05-05 21:40 41.02987 28.76111 4003 ft 207 kts 359°
2026-05-05 21:41 41.04377 28.76084 3994 ft 192 kts 359°
2026-05-05 21:41 41.05624 28.76060 3995 ft 172 kts 359°
2026-05-05 21:41 41.06750 28.76039 3992 ft 152 kts 359°
2026-05-05 21:41 41.07818 28.76019 3945 ft 158 kts 359°
2026-05-05 21:42 41.08910 28.75998 3749 ft 155 kts 359°
2026-05-05 21:42 41.09990 28.75978 3542 ft 156 kts 359°
2026-05-05 21:42 41.11077 28.75957 3339 ft 156 kts 359°
2026-05-05 21:42 41.12164 28.75937 3125 ft 156 kts 359°
2026-05-05 21:43 41.13257 28.75916 2909 ft 157 kts 359°
2026-05-05 21:43 41.14335 28.75895 2706 ft 157 kts 359°
2026-05-05 21:43 41.15422 28.75875 2495 ft 152 kts 359°
2026-05-05 21:43 41.16432 28.75855 2291 ft 137 kts 359°
2026-05-05 21:44 41.17395 28.75837 2106 ft 140 kts 359°
2026-05-05 21:44 41.18364 28.75819 1899 ft 139 kts 359°
2026-05-05 21:44 41.19321 28.75801 1684 ft 139 kts 359°
2026-05-05 21:44 41.20285 28.75796 1514 ft 139 kts 359°
2026-05-05 21:45 41.21259 28.75762 1280 ft 139 kts 358°
2026-05-05 21:45 41.22225 28.75720 1104 ft 139 kts 359°
2026-05-05 21:45 41.23184 28.75697 932 ft 139 kts
2026-05-05 21:45 41.24151 28.75697 757 ft 138 kts
2026-05-05 21:46 41.25114 28.75689 573 ft 138 kts
2026-05-05 21:46 41.26069 28.75670 382 ft 137 kts
2026-05-05 21:46 41.26983 28.75666 300 ft 111 kts 358°
2026-05-05 21:46 41.27555 28.75651 292 ft 53 kts 359°
2026-05-05 21:47 41.27820 28.75644 276 ft 42 kts
2026-05-05 21:47 41.28046 28.75578 262 ft 29 kts 329°
2026-05-05 21:47 41.28113 28.75522 259 ft 14 kts 327°
2026-05-05 21:47 41.28171 28.75424 257 ft 0 kts 265°
2026-05-05 21:48 41.28158 28.75389 258 ft 8 kts 226°
2026-05-05 21:48 41.28084 28.75362 260 ft 14 kts 184°
2026-05-05 21:48 41.27975 28.75362 266 ft 14 kts 179°
2026-05-05 21:48 41.27860 28.75363 277 ft 18 kts 179°
2026-05-05 21:49 41.27720 28.75363 282 ft 22 kts 180°
2026-05-05 21:49 41.27556 28.75364 296 ft 26 kts 179°
2026-05-05 21:49 41.27389 28.75367 300 ft 9 kts 179°
2026-05-05 21:49 41.27297 28.75367 300 ft 17 kts 181°
2026-05-05 21:50 41.27154 28.75369 302 ft 24 kts 178°
2026-05-05 21:50 41.26976 28.75327 303 ft 28 kts 232°
2026-05-05 21:50 41.26870 28.75254 307 ft 20 kts 175°
2026-05-05 21:50 41.26711 28.75257 307 ft 26 kts 180°
2026-05-05 21:51 41.26515 28.75263 310 ft 28 kts 179°
2026-05-05 21:51 41.26338 28.75267 311 ft 23 kts 180°
2026-05-05 21:51 41.26156 28.75268 313 ft 28 kts 178°
2026-05-05 21:51 41.25964 28.75274 314 ft 14 kts 179°
2026-05-05 21:52 41.25698 28.75278 311 ft 10 kts 178°
2026-05-05 21:52 41.25591 28.75281 312 ft 20 kts 178°
2026-05-05 21:52 41.25490 28.75284 311 ft 3 kts 180°
2026-05-05 21:53 41.25285 28.75053 314 ft 27 kts 274°
2026-05-05 21:53 41.25297 28.74969 313 ft 7 kts 330°
2026-05-05 21:54 41.25381 28.74955 310 ft 17 kts 358°
2026-05-05 21:54 41.25534 28.74951 310 ft 26 kts
2026-05-05 21:54 41.25632 28.74946 311 ft 3 kts 340°
2026-05-05 21:54 41.25677 28.74918 311 ft 11 kts 352°
2026-05-05 21:55 41.25739 28.74922 310 ft 0 kts 359°